Simultaneous Nadir Overpasses (SNOs) Predictions

Prediction of SNOs between GOES-16 and NPP Satellite Orbit:

Table of predicted SNOs for the next 14.0 days since TLE Epoch: 3/6/2021
Index Date Time (GOES-16) GOES-16 Lat,Lon NPP Lat,Lon Distance(km) Time Diff (sec)
1 03/06/2021 06:38:10 -0.04, -75.20 0.60, -77.97 316.21 80
2 03/07/2021 06:16:46 -0.04, -75.19 -0.44, -73.44 199.91 80
3 03/08/2021 18:38:41 0.03, -75.20 -0.79, -78.73 403.74 80
4 03/09/2021 18:22:36 0.03, -75.20 0.25, -74.21 113.13 80
5 03/11/2021 06:44:24 -0.01, -75.20 0.94, -79.47 486.79 80
6 03/12/2021 06:22:59 -0.01, -75.21 -0.09, -74.95 30.45 80
7 03/14/2021 18:26:10 0.01, -75.24 -0.09, -75.71 54.25 80
8 03/15/2021 18:10:06 0.01, -75.25 0.95, -71.19 463.70 80
9 03/17/2021 06:31:53 -0.01, -75.27 0.24, -76.45 134.69 80
10 03/18/2021 06:10:27 -0.01, -75.28 -0.74, -71.91 383.26 80
11 03/19/2021 18:32:24 0.01, -75.31 -0.41, -77.22 218.24 80
